Flag for Vietnam Weather past 2 weeks in Da Nang, Vietnam

Now
75 °F

Scattered clouds.


Feels Like: 74 °F
Forecast: 74 / 88 °F
Wind: No wind

Location: Da Nang Airport

Current Time: Mar 2, 2015 at 7:14:57 AM

Latest Report: Mar 2, 2015 at 6:30 AM


Visibility: 4 mi

Pressure: 30.01 "Hg

Humidity: 94%

Dew point: 73 °F

Location of Da NangLocation

Historic Weather in Da Nang — Graph

°F

Da Nang temperature yesterday

Maximum temperature yesterday: 86 °F (at 1:30 PM)
Minimum temperature yesterday: 75 °F (at 3:00 AM)
Average temperature yesterday: 80 °F

Past Weeks' High & Low Weather Summary

 TemperatureHumidityPressure
High90 °F (Feb 23, 11:00 AM)100% (Feb 17, 5:00 AM)30.09 "Hg (Feb 17, 5:00 AM)
Low68 °F (Feb 16, 6:00 AM)62% (Feb 17, 11:30 AM)29.77 "Hg (Feb 25, 3:00 PM)
Average78 °F84%29.93 "Hg
* Reported Feb 15 6:00 AM — Mar 2 6:00 AM, Da Nang, Weather by CustomWeather, © 2015

Note: Actual official high and low records may vary slightly from our data, if they occured in-between our weather recording intervals... More about our weather records

Advertising

Da Nang weather history for previous 24 hours

 ConditionsComfort  
Time TempWeatherWind HumidityBarometerVisibility
6:00 AM
Mon, Mar 2
75 °FPassing clouds.No wind94%29.98 "Hg4 mi
5:30 AM75 °FPassing clouds.No wind94%29.98 "Hg4 mi
5:00 AM75 °FPassing clouds.1 mph94%29.98 "Hg4 mi
4:30 AM75 °FPassing clouds.2 mph94%29.95 "Hg4 mi
4:00 AM75 °FPassing clouds.1 mph94%29.95 "Hg4 mi
3:30 AM77 °FPassing clouds.No wind89%29.95 "Hg4 mi
2:30 AM77 °FPassing clouds.2 mph89%29.98 "Hg4 mi
2:00 AM77 °FPassing clouds.2 mph89%29.98 "Hg4 mi
1:30 AM77 °FPassing clouds.3 mph89%30.01 "Hg4 mi
1:00 AM77 °FPassing clouds.3 mph89%30.01 "Hg4 mi
12:30 AM77 °FPassing clouds.3 mph89%30.01 "Hg4 mi
12:00 AM77 °FPassing clouds.3 mph89%30.01 "Hg4 mi
11:30 PM
Sun, Mar 1
79 °FPassing clouds.3 mph84%30.04 "Hg4 mi
11:00 PM79 °FPassing clouds.5 mph89%30.04 "Hg4 mi
10:30 PM79 °FPassing clouds.5 mph89%30.04 "Hg4 mi
10:00 PM79 °FPassing clouds.5 mph89%30.04 "Hg4 mi
9:30 PM79 °FPassing clouds.3 mph84%30.04 "Hg4 mi
9:00 PM79 °FPassing clouds.3 mph89%30.04 "Hg4 mi
8:30 PM79 °FPassing clouds.3 mph89%30.04 "Hg4 mi
8:00 PM79 °FPassing clouds.5 mph89%30.04 "Hg4 mi
7:30 PM79 °FPassing clouds.5 mph89%30.01 "Hg4 mi
6:30 PM79 °FPassing clouds.8 mph89%30.01 "Hg5 mi
6:00 PM79 °FPassing clouds.8 mph89%29.98 "Hg5 mi
5:30 PM79 °FPassing clouds.6 mph84%29.98 "Hg5 mi
5:00 PM81 °FPassing clouds.10 mph84%29.98 "Hg5 mi
4:30 PM81 °FPassing clouds.12 mph84%29.98 "Hg5 mi
4:00 PM82 °FPassing clouds.10 mph79%29.98 "Hg5 mi
3:30 PM82 °FPassing clouds.12 mph84%29.98 "Hg5 mi
3:00 PM82 °FPassing clouds.12 mph79%29.98 "Hg5 mi
2:30 PM84 °FScattered clouds.12 mph74%29.98 "Hg5 mi
2:00 PM84 °FScattered clouds.10 mph74%29.98 "Hg5 mi
1:30 PM86 °FScattered clouds.10 mph75%30.01 "Hg5 mi
1:00 PM84 °FScattered clouds.10 mph74%30.04 "Hg5 mi
12:30 PM84 °FScattered clouds.9 mph74%30.04 "Hg5 mi
12:00 PM82 °FScattered clouds.8 mph79%30.07 "Hg5 mi
11:30 AM82 °FScattered clouds.8 mph79%30.07 "Hg5 mi
11:00 AM82 °FScattered clouds.10 mph79%30.07 "Hg5 mi
10:30 AM82 °FScattered clouds.7 mph79%30.07 "Hg4 mi
10:00 AM84 °FScattered clouds.7 mph74%30.09 "Hg4 mi
9:30 AM81 °FScattered clouds.8 mph84%30.07 "Hg4 mi
9:00 AM81 °FScattered clouds.6 mph84%30.07 "Hg4 mi
8:30 AM81 °FScattered clouds.2 mph84%30.04 "Hg4 mi
8:00 AM81 °FScattered clouds.1 mph84%30.04 "Hg4 mi
7:30 AM79 °FScattered clouds.No wind84%30.01 "Hg4 mi
7:00 AM79 °FPartly sunny.1 mph84%30.01 "Hg5 mi
Weather by CustomWeather, © 2015

See weather overviewHow to use our weather pages